TimeCDT,TemperatureF,Dew PointF,Humidity,Sea Level PressureIn,VisibilityMPH,Wind Direction,Wind SpeedMPH,Gust SpeedMPH,PrecipitationIn,Events,Conditions,WindDirDegrees,DateUTC
12:53 AM,75.9,71.1,85,29.98,10.0,SSE,4.6,-,N/A,,Clear,160,2013-07-20 05:53:00
1:53 AM,73.9,70.0,87,29.97,10.0,SSW,4.6,-,N/A,,Clear,210,2013-07-20 06:53:00
2:53 AM,73.0,71.1,93,29.96,10.0,SSW,3.5,-,N/A,,Clear,200,2013-07-20 07:53:00
3:53 AM,73.9,71.1,91,29.97,10.0,Calm,Calm,-,N/A,,Clear,0,2013-07-20 08:53:00
4:53 AM,73.9,71.1,91,29.97,10.0,Calm,Calm,-,N/A,,Clear,0,2013-07-20 09:53:00
5:53 AM,73.0,71.1,93,29.99,10.0,Calm,Calm,-,N/A,,Clear,0,2013-07-20 10:53:00
6:53 AM,73.9,70.0,87,30.00,10.0,Calm,Calm,-,N/A,,Clear,0,2013-07-20 11:53:00
7:53 AM,78.1,71.1,79,29.99,10.0,West,5.8,-,N/A,,Clear,270,2013-07-20 12:53:00
8:53 AM,82.0,72.0,71,30.00,10.0,WSW,4.6,-,N/A,,Clear,250,2013-07-20 13:53:00
9:53 AM,86.0,72.0,63,29.99,10.0,SW,4.6,-,N/A,,Clear,230,2013-07-20 14:53:00
10:53 AM,89.1,70.0,53,29.98,10.0,SSW,9.2,-,N/A,,Scattered Clouds,200,2013-07-20 15:53:00
11:53 AM,91.0,69.1,48,29.98,10.0,South,6.9,-,N/A,,Mostly Cloudy,190,2013-07-20 16:53:00
12:53 PM,91.0,71.1,52,29.96,10.0,Variable,6.9,-,N/A,,Overcast,0,2013-07-20 17:53:00
1:08 PM,87.8,69.8,55,29.97,10.0,SSW,6.9,-,N/A,Thunderstorm,Overcast,200,2013-07-20 18:08:00
1:21 PM,89.6,69.8,52,29.96,10.0,South,9.2,-,N/A,Thunderstorm,Scattered Clouds,180,2013-07-20 18:21:00
1:53 PM,82.0,70.0,67,29.95,10.0,SSE,10.4,-,N/A,Thunderstorm,Thunderstorm,150,2013-07-20 18:53:00
2:00 PM,80.6,71.6,74,29.99,1.5,SSE,21.9,25.3,0.02,Rain-Thunderstorm,Heavy Thunderstorms and Rain,160,2013-07-20 19:00:00
2:09 PM,75.2,69.8,83,29.97,0.8,ESE,12.7,23.0,0.45,Rain-Thunderstorm,Heavy Thunderstorms and Rain,110,2013-07-20 19:09:00
2:14 PM,75.2,69.8,83,29.97,2.0,East,11.5,-,0.51,Rain-Thunderstorm,Thunderstorms and Rain,100,2013-07-20 19:14:00
2:22 PM,75.2,71.6,89,29.96,5.0,ESE,9.2,-,0.54,Rain-Thunderstorm,Thunderstorms and Rain,120,2013-07-20 19:22:00
2:53 PM,80.1,73.0,79,29.95,10.0,SE,8.1,-,0.55,Thunderstorm,Thunderstorm,140,2013-07-20 19:53:00
3:07 PM,84.2,73.4,70,29.95,10.0,South,9.2,-,N/A,,Clear,170,2013-07-20 20:07:00
3:24 PM,87.8,73.4,62,29.94,10.0,South,8.1,-,N/A,Thunderstorm,Clear,190,2013-07-20 20:24:00
3:53 PM,90.0,71.1,54,29.92,10.0,SSW,8.1,-,N/A,Thunderstorm,Thunderstorm,200,2013-07-20 20:53:00
4:09 PM,89.6,71.6,55,29.92,10.0,South,9.2,-,N/A,,Clear,190,2013-07-20 21:09:00
4:53 PM,91.0,69.1,48,29.89,10.0,WSW,9.2,-,N/A,,Clear,250,2013-07-20 21:53:00
5:53 PM,90.0,68.0,48,29.86,10.0,SSW,8.1,-,N/A,,Clear,210,2013-07-20 22:53:00
6:53 PM,89.1,70.0,53,29.89,10.0,SW,5.8,-,N/A,,Clear,230,2013-07-20 23:53:00
7:53 PM,84.9,71.1,63,29.91,10.0,Calm,Calm,-,N/A,,Clear,0,2013-07-21 00:53:00
8:53 PM,82.9,72.0,69,29.93,10.0,Calm,Calm,-,N/A,,Clear,0,2013-07-21 01:53:00
9:53 PM,81.0,73.0,77,29.94,10.0,Calm,Calm,-,N/A,,Mostly Cloudy,0,2013-07-21 02:53:00
10:53 PM,78.1,72.0,81,29.94,10.0,SSW,5.8,-,N/A,,Clear,200,2013-07-21 03:53:00
11:53 PM,77.0,72.0,84,29.95,10.0,South,5.8,-,N/A,,Clear,190,2013-07-21 04:53:00